Regional Weather Roundup
Issued by NWS Raleigh/Durham, NC

Home | Current Version | Previous Version | Text Only | Print | Product List | Glossary On
Versions: 1 2 3 4 5 6 7 8 9 10 11 12 13 14 15 16 17 18 19 20 21 22 23 24 25 26 27 28 29 30 31 32 33 34 35 36 37 38 39 40 41 42 43 44 45 46 47 48 49 50
587
ASUS42 KRAH 180110
RWRRAH
NORTH CAROLINA WEATHER ROUNDUP
NATIONAL WEATHER SERVICE RALEIGH NC
900 PM EDT TUE OCT 17 2017

NOTE: "FAIR" INDICATES FEW OR NO CLOUDS BELOW 12,000 FEET WITH NO
SIGNIFICANT WEATHER AND/OR OBSTRUCTIONS TO VISIBILITY.

NCZ001-053-055-056-065-067-180200-
WESTERN NORTH CAROLINA

CITY           SKY/WX    TMP DP  RH WIND       PRES   REMARKS
ASHEVILLE      CLEAR     50  43  77 CALM      30.32R
JEFFERSON      CLEAR     47  39  72 CALM      30.33R
MORGANTON      CLEAR     44  44  99 CALM      30.35R
HICKORY        CLEAR     54  40  59 CALM      30.31R
RUTHERFORDTON  CLEAR     51  47  86 CALM      30.32R
MOUNT AIRY     CLEAR     52  43  71 CALM      30.34R
BOONE          CLEAR     41  39  93 CALM      30.34S
$$

NCZ021-022-025-041-071-084-088-180200-
CENTRAL NORTH CAROLINA

CITY           SKY/WX    TMP DP  RH WIND       PRES   REMARKS
CHARLOTTE      CLEAR     56  43  61 NE5       30.31R
GREENSBORO     CLEAR     52  42  69 CALM      30.32R
WINSTON-SALEM  CLEAR     50  43  77 CALM      30.33R
RALEIGH-DURHAM PTCLDY    48  42  80 NE3       30.33R
FORT BRAGG     CLEAR     49  45  87 CALM      30.30R
FAYETTEVILLE   CLEAR     51  45  79 N3        30.30R
BURLINGTON     CLEAR     49  42  77 CALM      30.32R
LAURINBURG     CLEAR     50  44  80 CALM      30.31R
$$

NCZ011-015-027-028-043-044-047-080-103-180200-
NORTHEASTERN NORTH CAROLINA

CITY           SKY/WX    TMP DP  RH WIND       PRES   REMARKS
ROCKY MT-WILSO CLEAR     46  45  96 CALM      30.33R
GREENVILLE     CLEAR     48  43  81 CALM      30.32S
WASHINGTON     CLEAR     51  44  75 NE5       30.32S
ELIZABETH CITY CLEAR     54  46  74 N9        30.32R
MANTEO         CLOUDY   N/A N/A N/A NE12      30.30S
CAPE HATTERAS  CLOUDY    61  50  67 NE9G18    30.27R
$$

NCZ078-087-090-091-093-098-101-180200-
SOUTHEASTERN NORTH CAROLINA

CITY           SKY/WX    TMP DP  RH WIND       PRES   REMARKS
LUMBERTON      CLEAR     47  45  93 NE10G22   30.29R
GOLDSBORO      CLEAR     51  42  70 CALM      30.29R
KINSTON        CLEAR     46  43  87 CALM      30.31S
KENANSVILLE    CLEAR     46  43  87 CALM      30.30S
NEW BERN       CLEAR     53  43  68 NE7       30.31S
CHERRY POINT   CLOUDY    55  48  77 NE8       30.31R
BEAUFORT       CLOUDY    54  49  83 N9        30.28S
JACKSONVILLE   CLEAR     55  48  77 NE9       30.29R
WILMINGTON     CLOUDY    50  47  89 NE5       30.29R
$$





USA.gov is the U.S. government's official web portal to all federal, state and local government web resources and services.